sat.trackr.live / text

‹ back to catalog

STARLINK-32677

NORAD 63020 · 2025-032R

PAYLOAD ACTIVE UNKNOWN

§ Identity

Operator
Country
US
Launch date
2025-02-15
Launch site
AFETR
Launch vehicle
Mass (kg)
RCS (m²)

Purposes: comms

External: N2YO · Heavens-Above · Gunter

§ Orbital elements

Epoch: 2026-05-25T00:41:27.997728Z

Period
94.27 min
Inclination
42.9999°
Eccentricity
0.0001088
Mean motion
15.27584834 rev/d
Perigee alt
482.3 km
Apogee alt
483.8 km
Semi-major
6,861.2 km
B*
1.0109e-3
RAAN
265.0499°
Arg perigee
273.0977°
Mean anomaly
86.9750°
Rev number
7,228

§ Raw data

STARLINK-326771 63020U 25032R   26145.02879627  .00027664  00000+0  10109-2 0  99992 63020  42.9999 265.0499 0001088 273.0977  86.9750 15.27584834 72283

JSON: /api/v1/satellites/63020 · /tle

For live sub-satellite position, see the globe view (requires WebGL).

§ Visibility from observer

Set your observer location to see the next 7 days of passes ≥ 10°. The values pass through the URL so the page stays shareable.

No JS? Fill the form by hand. The geolocation button needs JavaScript.